Regional Weather Roundup
Issued by NWS

Home | Current Version | Previous Version | Text Only | Print | Product List | Glossary On
Versions: 1 2 3 4 5 6 7 8 9 10 11 12 13 14 15 16 17 18 19 20 21 22 23 24 25 26 27 28 29 30 31 32 33 34 35 36 37 38 39 40 41 42 43 44 45 46 47 48 49 50
329
ASUS43 KMPX 200810
RWRMN
WEATHER ROUNDUP FOR MINNESOTA
NATIONAL WEATHER SERVICE TWIN CITIES/CHANHASSEN MN
300 AM CDT SUN MAY 20 2018


NOTE: "FAIR" INDICATES FEW OR NO CLOUDS BELOW 12,000 FEET WITH NO
SIGNIFICANT WEATHER AND/OR OBSTRUCTIONS TO VISIBILITY. N/A MEANS
CURRENT SKY AND/OR WEATHER CONDITIONS ARE NOT AVAILABLE.

MNZ060>063-068>070-200900-
   Twin Cities Metro

CITY           SKY/WX    TMP DP  RH WIND       PRES   REMARKS
TWIN CITIES    FAIR      49  38  65 NE12      30.18R
ST PAUL        FAIR      48  37  65 NE9G17    30.19R
CRYSTAL        FAIR      44  39  82 N5        30.17S
BLAINE         FAIR      45  39  81 N7        30.18S
LAKEVILLE      CLOUDY    46  37  71 NE10      30.16S
EDEN PRAIRIE   FAIR      49  37  63 NE9       30.17R
SOUTH ST PAUL  FAIR      48  37  64 NE6       30.18R
LAKE ELMO      FAIR      45  37  76 NE7       30.19R
$$
MNZ001>005-007-008-013>017-022>024-027-028-200900-
   Northwest Minnesota

CITY           SKY/WX    TMP DP  RH WIND       PRES   REMARKS
BEMIDJI        FAIR      31  29  92 W3        30.23S
HALLOCK        FAIR      37  36  93 S6        30.21S
ROSEAU         FAIR      43  36  75 SW6       30.21S
WARROAD        FAIR      45  36  70 SW7       30.21S
THIEF RVR FALL FAIR      41  35  79 CALM      30.23F
CROOKSTON      FAIR      45  36  70 CALM      30.23S
FOSSTON        FAIR      37  30  75 CALM      30.23F
DETROIT LAKES  FAIR      41  34  75 CALM      30.24S
MOORHEAD       FAIR      41  34  75 CALM      30.24R
PARK RAPIDS    FAIR      38  33  82 W3        30.23R
MAHNOMEN       FAIR      41  35  79 SE5       30.23S
$$
MNZ006-009>011-018-025>026-200900-
   North Central Minnesota

CITY           SKY/WX    TMP DP  RH WIND       PRES   REMARKS
BAUDETTE       FAIR      38  35  89 CALM      30.21S
FLAG ISLAND    FAIR      52  34  50 SW10      30.18S
INTL FALLS     FAIR      32  32 100 CALM      30.21S
WASKISH        FAIR      32  32 100 CALM      30.23S
BIG FORK       FAIR      30  30 100 CALM      30.22F
LONGVILLE      FAIR      36  34  93 CALM      30.23R
GRAND RAPIDS   FAIR      36  35  96 CALM      30.26R
CRANE LAKE     FAIR      28  28 100 CALM      30.23F
ORR            FAIR      34  30  86 CALM      30.20S
COOK           FAIR      30  30 100 CALM      30.23S
WALKER         FAIR      35  34  94 CALM      30.23S
$$
MNZ012-019>021-037-200900-
   Northeast Minnesota

CITY           SKY/WX    TMP DP  RH WIND       PRES   REMARKS
DULUTH         FAIR      37  32  82 NE5       30.24R
ELY            FAIR      30  30 100 CALM      30.23S
HIBBING        FAIR      29  28  96 CALM      30.23S
EVELETH        FAIR      30  28  93 CALM      30.25S
DULUTH HARBOR  FAIR      41  37  87 CALM      30.27R
TWO HARBORS    FAIR      36  30  80 CALM      30.23R
SILVER BAY     FAIR      30  30 100 CALM      30.23R
GRAND MARAIS     N/A     33  30  88 CALM      30.23S
G MARAIS ARPRT FAIR      28  25  86 W5        30.21S WCI  23
$$
MNZ029>031-032-039>041-046>048-054>057-064-200900-
   West Central Minnesota

CITY           SKY/WX    TMP DP  RH WIND       PRES   REMARKS
FERGUS FALLS   FAIR      46  36  66 NE5       30.20S
WHEATON        CLOUDY    45  30  57 N3        30.24R
MORRIS         MOCLDY    45  34  65 NE6       30.21R
ALEXANDRIA     FAIR      46  35  65 NE6       30.22S
ELBOW LAKE     FAIR      49  37  61 NE7       30.22S
WADENA         FAIR      39  32  75 E5        30.23S
GLENWOOD       FAIR      43  37  81 NE7       30.22S
APPLETON       CLOUDY    46  37  71 NE6       30.20S
BENSON         CLOUDY    45  37  76 CALM      30.23R
ORTONVILLE     MOCLDY    45  36  70 NE5       30.21R
MADISON        MOCLDY    48  39  71 NE5       30.20S
WILLMAR        FAIR      48  39  71 NE8       30.22R
$$
MNZ033>034-036-042>043-049>051-058-059-200900-
   Central Minnesota

CITY           SKY/WX    TMP DP  RH WIND       PRES   REMARKS
ST CLOUD       FAIR      44  39  82 N5        30.21R
SAUK CENTRE    FAIR      45  39  79 NE3       30.22S
PAYNESVILLE    FAIR      46  41  82 NE7       30.21S
AITKIN         FAIR      32  30  93 CALM      30.23S
PINE RIVER     FAIR      34  30  86 CALM      30.27S
BRAINERD       FAIR      40  37  89 CALM      30.24R FOG
STAPLES        FAIR      37  32  81 CALM      30.24R
LONG PRAIRIE   FAIR      45  37  76 N6        30.22F
LITTLE FALLS   FAIR      41  41 100 CALM      30.23S
LITCHFIELD     FAIR      48  43  81 NE7       30.19S
BUFFALO        FAIR      46  38  73 N9        30.20S
MAPLE LAKE     FAIR      46  41  82 NE5       30.20S
HUTCHINSON     FAIR      48  40  73 NE9       30.19R
$$
MNZ037-044-045-052-053-200900-
   East Central Minnesota

CITY           SKY/WX    TMP DP  RH WIND       PRES   REMARKS
PRINCETON      FAIR      45  39  81 N6        30.21S
MORA           FAIR      37  34  87 NE5       30.24S
CAMBRIDGE      FAIR      46  37  71 N5        30.21S
RUSH CITY      FAIR      41  37  85 N5        30.21F
MOOSE LAKE     FAIR      36  34  93 NE3       30.23S
HINCKLEY       FAIR      36  36 100 N5        30.24S
CLOQUET        FAIR      34  30  86 CALM      30.25R
MCGREGOR       FAIR      34  32  93 CALM      30.25S
$$
MNZ071>073-080-081-089-090-097-098-200900-
   Southwest Minnesota

CITY           SKY/WX    TMP DP  RH WIND       PRES   REMARKS
MONTEVIDEO     MOCLDY    48  39  71 E7        30.21R
GRANITE FALLS  MOCLDY    49  41  74 N6        30.21R
CANBY          MOCLDY    47  41  79 NE6       30.21R
MARSHALL       CLOUDY    52  39  61 NE15      30.18S
REDWOOD FALLS  CLOUDY    51  38  60 NE9       30.17R
OLIVIA         CLOUDY    50  37  62 NE9       30.18R
PIPESTONE      CLOUDY    52  41  66 E14G21    30.13F
WINDOM         CLOUDY    52  32  46 N14       30.13S
WORTHINGTON    LGT RAIN  49  45  86 NE16      30.12F
JACKSON        CLOUDY    50  43  76 N13       30.13S
TRACY          CLOUDY    52  41  65 NE12      30.17R
SLAYTON        CLOUDY    50  42  73 NE13G21   30.15R
$$
MNZ065>067-074>077-082>085-091>093-200900-
   South Central Minnesota

CITY           SKY/WX    TMP DP  RH WIND       PRES   REMARKS
MANKATO        CLOUDY    51  39  63 NE20      30.13F
NEW ULM        CLOUDY    50  37  62 NE14G23   30.15R
ST JAMES       CLOUDY    52  43  71 N13       30.14S
GLENCOE        FAIR      49  40  71 NE7       30.17R
FARIBAULT      CLOUDY    48  39  71 N6        30.14S
OWATONNA       MOCLDY    50  39  66 NE13G18   30.12F
WASECA         MOCLDY    50  39  66 NE18      30.12S
ALBERT LEA     FAIR      50  37  62 NE13      30.09F
$$
MNZ078>079-086>088-094>096-200900-
   Southeast Minnesota

CITY           SKY/WX    TMP DP  RH WIND       PRES   REMARKS
ROCHESTER      CLOUDY    48  41  76 NE16      30.11S
RED WING       MOCLDY    50  34  53 CALM      30.15R
STANTON        MOCLDY    50  38  63 NE12      30.14S
DODGE CENTER   CLOUDY    48  37  66 NE14G20   30.10F
WINONA         CLOUDY    52  41  66 NE7       30.11R
AUSTIN         FAIR      48  41  76 NE10      30.09S
PRESTON        CLOUDY    48  40  73 N12G22    30.09S
$$
ABBREVIATIONS USED IN REMARKS
   TC - TEMPERATURES IN CELSIUS
  WCI - WIND CHILL INDEX
   HX - HEAT INDEX
  VSB - VISIBILITY
$$




USA.gov is the U.S. government's official web portal to all federal, state and local government web resources and services.